Location: D�derode
(51.8092°N, 10.1065°E)
Time: 01:52:15
(UTC+00:00)

Cosmos 1603 - Visible Passes

Search period start: 11 April 2021 00:00
Search period end: 21 April 2021 00:00
Orbit: 829 x 861 km, 71.0° (Epoch: 10 April)

Date Brightness Start Highest point End Pass type
(mag) Time Alt. Az. Time Alt. Az. Time Alt. Az.
11 Apr 5.4 01:20:31 10° NW 01:22:50 19° WNW 01:22:50 19° WNW visible
11 Apr 6.3 19:53:51 10° N 19:55:39 11° N 19:57:28 10° NNE visible
11 Apr 5.6 21:37:44 10° NNW 21:42:10 22° NE 21:45:13 15° ENE visible
11 Apr 3.8 23:21:31 10° NNW 23:27:05 74° NE 23:27:05 74° NE visible
12 Apr 5.4 01:06:29 10° NW 01:08:57 19° WNW 01:08:57 19° WNW visible
12 Apr 6.3 19:39:51 10° N 19:41:37 11° N 19:43:24 10° NNE visible
12 Apr 5.6 21:23:46 10° NNW 21:28:09 22° NE 21:31:22 14° ENE visible
12 Apr 3.8 23:07:32 10° NNW 23:13:14 73° NE 23:13:14 73° NE visible
13 Apr 5.4 00:52:28 10° NW 00:55:06 20° WNW 00:55:06 20° WNW visible
13 Apr 6.3 19:25:51 10° N 19:27:35 11° N 19:29:20 10° NNE visible
13 Apr 5.6 21:09:47 10° NNW 21:14:07 21° NNE 21:17:33 13° ENE visible
13 Apr 3.7 22:53:33 10° NNW 22:59:19 72° ENE 22:59:25 71° ENE visible
14 Apr 5.3 00:38:26 10° NW 00:41:16 21° WNW 00:41:16 21° WNW visible
14 Apr 6.2 19:11:51 10° N 19:13:33 11° N 19:15:15 10° NNE visible
14 Apr 5.6 20:55:48 10° NNW 21:00:07 21° NNE 21:03:44 12° ENE visible
14 Apr 3.7 22:39:34 10° NNW 22:45:19 70° ENE 22:45:36 68° ENE visible
15 Apr 5.3 00:24:24 10° NW 00:27:29 22° W 00:27:29 22° W visible
15 Apr 6.2 18:57:51 10° NNW 18:59:31 11° N 19:01:11 10° NNE visible
15 Apr 5.6 20:41:50 10° NNW 20:46:05 21° NNE 20:49:57 11° ENE visible
15 Apr 3.8 22:25:35 10° NNW 22:31:20 68° ENE 22:31:50 64° E visible
16 Apr 5.2 00:10:23 10° NW 00:13:42 23° W 00:13:42 23° W visible
16 Apr 5.6 20:27:51 10° NNW 20:32:04 20° NNE 20:36:11 10° E visible
16 Apr 3.8 22:11:35 10° NNW 22:17:20 66° NE 22:18:04 60° E visible
16 Apr 5.1 23:56:22 10° NW 23:59:57 25° W 23:59:57 25° W visible
17 Apr 5.6 20:13:52 10° NNW 20:18:03 20° NNE 20:22:11 10° ENE visible
17 Apr 3.8 21:57:36 10° NNW 22:03:20 65° NE 22:04:20 55° ESE visible
17 Apr 5.1 23:42:21 10° NW 23:46:12 26° W 23:46:12 26° W visible
18 Apr 5.6 19:59:53 10° NNW 20:04:01 20° NNE 20:08:07 10° ENE visible
18 Apr 3.9 21:43:37 10° NNW 21:49:20 63° NE 21:50:37 50° ESE visible
18 Apr 5.0 23:28:19 10° NW 23:32:30 27° W 23:32:30 27° W visible
19 Apr 5.6 19:45:55 10° NNW 19:50:00 19° NNE 19:54:03 10° ENE visible
19 Apr 3.9 21:29:38 10° NNW 21:35:20 62° NE 21:36:55 45° ESE visible
19 Apr 4.9 23:14:18 10° NW 23:18:48 28° W 23:18:48 28° W visible
20 Apr 5.6 19:31:56 10° NNW 19:35:58 19° NNE 19:39:59 10° ENE visible
20 Apr 4.0 21:15:39 10° NNW 21:21:20 60° NE 21:23:15 40° ESE visible
20 Apr 4.9 23:00:17 10° NW 23:05:07 29° WSW 23:05:07 29° WSW visible
